JA3VQW-13 Weather Reports


time (UTC)temp
C
wind
direction
speed
KPH
gust
KPH
rain 1hr
cm
rain 24hr
cm
rain mn
cm
humidity
%
barometer
mb
20260902053757 34 135 0.0 3.2 0.00 1.07 0.00 28 1003.0
20260902053512 34 135 0.0 3.2 0.00 1.07 0.00 28 1003.0
20260902050757 35 315 0.0 3.2 0.00 1.07 0.00 27 1004.0
20260902050512 35 315 0.0 0.0 0.00 1.07 0.00 27 1004.0
20260902045014 36 315 1.6 3.2 0.00 1.07 0.00 26 1003.0
20260902043759 36 315 0.0 0.0 0.00 1.07 0.00 21 1003.0
20260902043514 36 315 0.0 0.0 0.00 1.07 0.00 21 1003.0
20260902042015 35 315 0.0 0.0 0.00 1.07 0.00 25 1004.0
20260902040800 34 315 0.0 0.0 0.00 1.07 0.00 23 1004.0
20260902040516 34 315 3.2 8.0 0.00 1.07 0.00 23 1004.0
20260902033759 35 315 3.2 4.8 0.00 1.07 0.00 21 1004.0
20260902033515 35 315 0.0 4.8 0.00 1.07 0.00 22 1004.0
20260902030800 35 315 0.0 4.8 0.00 1.07 0.00 24 1004.0
20260902030515 35 315 0.0 3.2 0.00 1.07 0.00 26 1004.0
20260902023759 33 315 3.2 8.0 0.00 1.07 0.00 29 1004.0
20260902023515 33 315 0.0 0.0 0.00 1.07 0.00 30 1004.0
20260902020759 32 315 0.0 3.2 0.00 1.07 0.00 32 1005.0
20260902020514 32 315 1.6 4.8 0.00 1.07 0.00 31 1005.0
20260902015014 33 315 0.0 0.0 0.00 1.07 0.00 29 1005.0
20260902013758 34 315 0.0 0.0 0.00 1.07 0.00 28 1005.0
20260902012013 33 315 0.0 0.0 0.00 1.07 0.00 31 1005.0
20260902010759 33 315 0.0 0.0 0.00 1.07 0.00 33 1005.0
20260902010515 32 315 0.0 0.0 0.00 1.07 0.00 33 1005.0
20260902005014 32 315 0.0 11.3 0.00 1.07 0.00 34 1005.0
20260902003758 32 315 0.0 0.0 0.00 1.07 0.00 38 1005.0
20260902000759 31 315 0.0 0.0 0.00 1.07 0.00 42 1005.0
20260901233759 30 315 0.0 4.8 0.00 1.07 0.00 45 1004.0
20260901233516 30 315 0.0 0.0 0.00 1.07 0.00 46 1004.0
20260901230758 29 315 0.0 0.0 0.00 1.07 0.00 48 1004.0
20260901230513 29 315 0.0 0.0 0.00 1.07 0.00 48 1004.0
20260901225013 29 315 0.0 0.0 0.00 1.07 0.00 48 1005.0
20260901223759 28 315 0.0 0.0 0.00 1.07 0.00 50 1005.0
20260901220758 28 315 0.0 0.0 0.00 1.07 0.00 56 1005.0
20260901213758 27 315 0.0 0.0 0.00 1.07 0.00 60 1005.0
20260901210758 26 225 0.0 0.0 0.00 1.07 0.00 65 1005.0
20260901203759 27 225 0.0 0.0 0.00 1.07 0.00 63 1005.0
20260901200759 26 225 0.0 0.0 0.00 1.07 0.00 65 1005.0
20260901193758 26 225 0.0 0.0 0.00 1.07 0.00 66 1005.0
20260901190758 26 225 0.0 0.0 0.00 1.07 0.00 65 1005.0
20260901183758 26 225 0.0 0.0 0.00 1.07 0.00 67 1005.0
20260901180758 26 225 0.0 0.0 0.00 1.07 0.00 65 1005.0
20260901173758 27 225 0.0 0.0 0.00 1.07 0.00 63 1005.0
20260901170758 27 225 0.0 0.0 0.00 1.07 0.00 62 1005.0
20260901163757 27 225 0.0 0.0 0.00 1.07 0.00 63 1005.0
20260901160758 27 225 0.0 0.0 0.00 1.07 0.00 60 1005.0
20260901153758 27 225 0.0 0.0 0.00 1.07 0.00 61 1005.0
20260901150758 27 135 0.0 0.0 0.00 1.07 0.00 65 1006.0
20260901143758 27 135 0.0 0.0 0.00 1.07 1.07 65 1006.0
20260901140758 27 135 0.0 0.0 0.00 1.07 1.07 65 1006.0
20260901133759 27 135 0.0 0.0 0.00 1.07 1.07 72 1006.0
20260901132013 27 135 0.0 0.0 0.10 1.07 1.07 75 1006.0
20260901130758 27 135 0.0 0.0 0.10 1.07 1.07 77 1006.0
20260901125012 27 135 0.0 0.0 0.10 1.07 1.07 79 1006.0
20260901123757 27 135 0.0 0.0 0.10 1.07 1.07 79 1006.0
20260901122014 27 135 0.0 0.0 0.23 0.97 0.97 79 1006.0
20260901120758 26 135 0.0 0.0 0.86 0.97 0.97 78 1006.0
20260901120512 27 135 0.0 0.0 0.86 0.97 0.97 79 1006.0
20260901115013 27 135 0.0 0.0 0.86 0.97 0.97 79 1006.0
20260901113757 27 135 0.0 0.0 0.97 0.97 0.97 79 1006.0
20260901113512 27 135 0.0 0.0 0.97 0.97 0.97 79 1006.0
20260901112013 27 135 0.0 0.0 0.74 0.74 0.74 70 1006.0
20260901110758 28 135 0.0 9.7 0.10 0.10 0.10 63 1006.0
20260901110513 28 135 0.0 3.2 0.10 0.10 0.10 65 1006.0
20260901105013 28 135 0.0 0.0 0.10 0.10 0.10 60 1006.0
20260901103757 28 135 0.0 0.0 0.00 0.00 0.00 56 1006.0
20260901103512 28 135 0.0 0.0 0.00 0.00 0.00 54 1006.0
20260901102012 30 90 4.8 8.0 0.00 0.00 0.00 41 1005.0
20260901100757 30 135 0.0 3.2 0.00 0.00 0.00 41 1005.0
20260901100513 30 135 3.2 3.2 0.00 0.00 0.00 41 1005.0
20260901095012 31 135 3.2 4.8 0.00 0.00 0.00 40 1005.0
20260901093758 31 90 8.0 4.8 0.00 0.00 0.00 39 1005.0
20260901093513 31 90 1.6 11.3 0.00 0.00 0.00 38 1005.0
20260901092012 32 90 0.0 3.2 0.00 0.00 0.00 35 1005.0
20260901090758 33 90 0.0 0.0 0.00 0.00 0.00 32 1005.0
20260901085012 35 90 0.0 0.0 0.00 0.00 0.00 29 1004.0
20260901083757 35 90 0.0 0.0 0.00 0.00 0.00 29 1004.0
20260901083512 35 90 0.0 0.0 0.00 0.00 0.00 29 1004.0
20260901082012 34 0 0.0 0.0 0.00 0.00 0.00 30 1004.0
20260901080757 34 0 0.0 0.0 0.00 0.00 0.00 29 1004.0
20260901080513 35 0 3.2 3.2 0.00 0.00 0.00 28 1004.0
20260901075013 36 0 0.0 0.0 0.00 0.00 0.00 27 1004.0
20260901073758 35 0 0.0 3.2 0.00 0.00 0.00 29 1004.0
20260901073513 34 0 0.0 0.0 0.00 0.00 0.00 30 1004.0
20260901070757 34 270 0.0 0.0 0.00 0.00 0.00 30 1004.0
20260901070512 34 270 1.6 3.2 0.00 0.00 0.00 29 1004.0
20260901063756 35 225 0.0 0.0 0.00 0.00 0.00 28 1004.0
20260901062013 35 135 0.0 0.0 0.00 0.00 0.00 27 1004.0
20260901060757 36 135 0.0 0.0 0.00 0.00 0.00 26 1004.0